User: anonymous   Login
Location: Akho
(42.3047°N, 44.1844°E)
Time: 15:55:05
(UTC+00:00)
Language:

CZ-4C R/B - Orbit

View from above orbital plane
View from above orbital plane
View from above satellite
View from above satellite

Ground track
Ground track

The orbit data is extracted from the following two-line orbital elements,

1 32290U 07055B   20227.70250969  .00000818  00000-0  22684-4 0  9997
2 32290  97.6580  25.7036 0059601 329.5790  30.2000 15.38575882709140
Epoch (UTC): 14 August 2020 16:51:36
Eccentricity: 0.0059601
inclination: 97.6580°
perigee height: 409 km
apogee height: 491 km
right ascension of ascending node: 25.7036°
argument of perigee: 329.5790°
revolutions per day: 15.38575882
mean anomaly at epoch: 30.2000°
orbit number at epoch: 70914

The dashed part of the orbit path shows where the satellite is in the earth's shadow,  

DLR